FENGYUN 1C DEB

Satellite information

Favourite Embed

Satellite Type and Status

DEBRISIN ORBIT

Key statistics

Satellite FENGYUN 1C DEB at a glance.

Uptime

9617

Days in orbit

Revolutions

≈ 14.2

Per day

Orbit

SSO

Sun Synchronous Orbit

Inclination

98.6

Latest

Satellite identification and parameters

Extended collection of information and parameters for FENGYUN 1C DEB.

Object identification

Identified? True

Debris? True

Object name: FENGYUN 1C DEB

International designator: 1999-025CQQ

Object number (NORAD): 32098

Object ID (CCSDS): 32098

Country: PEOPLES REPUBLIC OF CHINA (PRC)

Current information (Y/N): Y

RCS size: SMALL

Orbital parameters

Period: 101.41 minutes

Inclination: 98.6063 deg

SMA: 7203.544 km

Apoapsis: 967.216 km

Periapsis: 683.603 km

RAAN: 244.2344 deg

Eccentricy: 0.01968567

Argument of periapsis: 42.19 deg

Mean anomaly: 319.4238 deg

Mean motion: 14.19983889 rev/day

Mean motion (dot): 0.00001829 rev/day2

B* drag term: 0.00072522965 1/REarth

Two-line elements (TLE)

Creation date: Sept. 6, 2025, 10:23 a.m.

Reference frame: TEME

Reference center: EARTH

Epoch: Sept. 6, 2025, 6:17 a.m. UTC

TLE line 0: 0 FENGYUN 1C DEB

TLE line 1: 1 32098U 99025CQQ 25249.26220642 .00001829 00000-0 72523-3 0 9995

TLE line 2: 2 32098 98.6063 244.2344 0196857 42.1900 319.4238 14.19983889628445

Live tracking on map

Real-time ground track for satellite FENGYUN 1C DEB.

In-orbit conjunctions

A list of the most updated potential collisions computed for object FENGYUN 1C DEB.

Target Orbit TCA Probability of collision Miss distance Type
METEOR 2-20 DEB LEO 2025-02-25 11:13:19 0.0001773782 159.0 (m) DEBRIS
FENGYUN 1C DEB SSO 2024-11-13 12:24:21 0.0001290538 403.0 (m) DEBRIS

Associated space launch

Chinese polar orbiting meteorological satellite

FENGYUN 1C DEB was lifted into orbit during the mission ‘Long March 4B | Feng Yun 1C’, on board a Long March 4B space rocket.

The launch took place on May 10, 1999, 1:33 a.m. from Launch Complex 7.

For more information about the launch, click the button.

Launch to space Long March 4B | Feng Yun 1C
Long March 4B | Feng Yun 1C

Agency: N/A

Status: Launch Successful

Launch date: May 10, 1999, 1:33 a.m. UTC

Rocket: Long March 4B

Launch pad: Launch Complex 7

Location: Taiyuan Satellite Launch Center, People's Republic of China

...

Latest news about this satellite

There are no fresh news available about this satellite. Check back as we update our databases every day.


Newsletter sign-up

Weekly statistics, charts and insights to help you stay on top of the space industry.